• In Uzbekistan
  • List of Countries
  • For 7 days
  • Water Temperature
  • Satellite Maps
  • Weather Map
  • Weather Widgets
  • user-avatar
    Login

    Hourly Weather Lokiec

    Today, 22 September, Saturday

    Time Temperature Precipitation Wind Pressure Humidity
    00:00 +14°C° 0 mm 3 mps 704 mmHg 72%
    01:00 +14°C° 0 mm 3 mps 703 mmHg 70%
    02:00 +14°C° 0 mm 3 mps 703 mmHg 68%
    03:00 +14°C° 0 mm 3 mps 703 mmHg 66%
    04:00 +13°C° 0 mm 3 mps 703 mmHg 65%
    05:00 +13°C° 0 mm 3 mps 703 mmHg 63%
    06:00 +13°C° 0 mm 3 mps 704 mmHg 65%
    07:00 +13°C° 0 mm 3 mps 705 mmHg 68%
    08:00 +14°C° 0 mm 3 mps 705 mmHg 70%
    09:00 +13°C° 0.2 mm 3 mps 706 mmHg 72%
    10:00 +13°C° 0.2 mm 3 mps 706 mmHg 74%
    11:00 +12°C° 0.2 mm 3 mps 706 mmHg 76%
    12:00 +13°C° 0.8 mm 2 mps 706 mmHg 80%
    13:00 +12°C° 0.8 mm 2 mps 706 mmHg 84%
    14:00 +10°C° 0.8 mm 2 mps 706 mmHg 88%
    15:00 +9°C° 1.1 mm 2 mps 706 mmHg 89%
    16:00 +10°C° 1.1 mm 1 mps 706 mmHg 90%
    17:00 +10°C° 1.1 mm 1 mps 706 mmHg 91%
    18:00 +9°C° 0.1 mm 1 mps 706 mmHg 92%
    19:00 +8°C° 0.1 mm 1 mps 707 mmHg 92%
    20:00 +7°C° 0.1 mm 1 mps 707 mmHg 93%
    21:00 +7°C° 0 mm 1 mps 707 mmHg 91%
    22:00 +7°C° 0 mm 1 mps 707 mmHg 89%
    23:00 +7°C° 0 mm 1 mps 707 mmHg 87%

    Tomorrow, 23 September, Sunday

    Time Temperature Precipitation Wind Pressure Humidity
    00:00 +7°C° 0 mm 1 mps 707 mmHg 88%
    01:00 +7°C° 0 mm 1 mps 707 mmHg 88%
    02:00 +7°C° 0 mm 1 mps 707 mmHg 89%
    03:00 +7°C° 0 mm 1 mps 707 mmHg 90%
    04:00 +6°C° 0 mm 2 mps 706 mmHg 90%
    05:00 +5°C° 0 mm 2 mps 706 mmHg 91%
    06:00 +6°C° 0 mm 2 mps 706 mmHg 90%
    07:00 +7°C° 0 mm 2 mps 706 mmHg 89%
    08:00 +7°C° 0 mm 2 mps 707 mmHg 88%
    09:00 +9°C° 0 mm 3 mps 707 mmHg 83%
    10:00 +10°C° 0 mm 3 mps 707 mmHg 79%
    11:00 +11°C° 0 mm 4 mps 707 mmHg 74%
    12:00 +11°C° 0 mm 4 mps 706 mmHg 73%
    13:00 +12°C° 0 mm 4 mps 706 mmHg 71%
    14:00 +12°C° 0 mm 5 mps 706 mmHg 69%
    15:00 +12°C° 0 mm 4 mps 706 mmHg 70%
    16:00 +12°C° 0 mm 4 mps 705 mmHg 70%
    17:00 +12°C° 0 mm 4 mps 705 mmHg 71%
    18:00 +12°C° 0 mm 4 mps 704 mmHg 72%
    19:00 +11°C° 0 mm 4 mps 704 mmHg 73%
    20:00 +10°C° 0 mm 4 mps 703 mmHg 74%
    21:00 +10°C° 0 mm 5 mps 703 mmHg 71%
    22:00 +10°C° 0 mm 5 mps 702 mmHg 68%
    23:00 +10°C° 0 mm 5 mps 701 mmHg 64%

    Day after tomorrow, 24 September, Monday

    Time Temperature Precipitation Wind Pressure Humidity
    00:00 +10°C° 0.1 mm 6 mps 700 mmHg 67%
    01:00 +10°C° 0.1 mm 6 mps 699 mmHg 70%
    02:00 +10°C° 0.1 mm 6 mps 698 mmHg 73%
    03:00 +11°C° 0.2 mm 7 mps 697 mmHg 73%
    04:00 +12°C° 0.2 mm 8 mps 696 mmHg 74%
    05:00 +12°C° 0.2 mm 8 mps 695 mmHg 74%
    06:00 +12°C° 0.9 mm 8 mps 695 mmHg 78%
    07:00 +11°C° 0.9 mm 8 mps 695 mmHg 82%
    08:00 +10°C° 0.9 mm 7 mps 696 mmHg 87%
    09:00 +9°C° 0.1 mm 7 mps 697 mmHg 85%
    10:00 +8°C° 0.1 mm 6 mps 699 mmHg 83%
    11:00 +5°C° 0.1 mm 6 mps 701 mmHg 82%
    12:00 +7°C° 0.2 mm 6 mps 702 mmHg 80%
    13:00 +6°C° 0.2 mm 7 mps 703 mmHg 78%
    14:00 +6°C° 0.2 mm 7 mps 704 mmHg 76%
    15:00 +6°C° 0.2 mm 7 mps 704 mmHg 72%
    16:00 +7°C° 0.2 mm 6 mps 705 mmHg 69%
    17:00 +7°C° 0.2 mm 6 mps 705 mmHg 65%
    18:00 +6°C° 0 mm 5 mps 706 mmHg 67%
    19:00 +5°C° 0 mm 5 mps 706 mmHg 69%
    20:00 +4°C° 0 mm 4 mps 706 mmHg 70%
    21:00 +4°C° 0 mm 4 mps 707 mmHg 72%
    22:00 +4°C° 0 mm 4 mps 707 mmHg 74%
    23:00 +3°C° 0 mm 4 mps 708 mmHg 76%

    25 September, Tuesday

    Time Temperature Precipitation Wind Pressure Humidity
    00:00 +3°C° 0 mm 4 mps 708 mmHg 78%
    01:00 +3°C° 0 mm 4 mps 708 mmHg 80%
    02:00 +1°C° 0 mm 4 mps 709 mmHg 82%
    03:00 +2°C° 0 mm 3 mps 709 mmHg 84%
    04:00 +1°C° 0 mm 3 mps 710 mmHg 85%
    05:00 +1°C° 0 mm 3 mps 710 mmHg 87%
    06:00 +1°C° 0 mm 3 mps 710 mmHg 84%
    07:00 +2°C° 0 mm 3 mps 711 mmHg 81%
    08:00 +3°C° 0 mm 4 mps 712 mmHg 78%
    09:00 +4°C° 0.1 mm 4 mps 712 mmHg 71%
    10:00 +5°C° 0.1 mm 5 mps 713 mmHg 63%
    11:00 +7°C° 0.1 mm 6 mps 713 mmHg 55%
    12:00 +7°C° 0.1 mm 6 mps 713 mmHg 53%
    13:00 +7°C° 0.1 mm 6 mps 713 mmHg 51%
    14:00 +8°C° 0.1 mm 6 mps 714 mmHg 49%
    15:00 +7°C° 0.1 mm 5 mps 714 mmHg 52%
    16:00 +7°C° 0.1 mm 5 mps 714 mmHg 56%
    17:00 +6°C° 0.1 mm 4 mps 714 mmHg 59%
    18:00 +5°C° 0 mm 3 mps 714 mmHg 64%
    19:00 +4°C° 0 mm 2 mps 714 mmHg 69%
    20:00 +3°C° 0 mm 1 mps 715 mmHg 74%
    21:00 +3°C° 0 mm 1 mps 714 mmHg 75%
    22:00 +3°C° 0 mm 1 mps 714 mmHg 75%
    23:00 +2°C° 0 mm 1 mps 714 mmHg 76%

    26 September, Wednesday

    Time Temperature Precipitation Wind Pressure Humidity
    00:00 +2°C° 0 mm 1 mps 714 mmHg 75%
    01:00 +1°C° 0 mm 2 mps 714 mmHg 74%
    02:00 +1°C° 0 mm 2 mps 714 mmHg 73%
    03:00 +1°C° 0 mm 2 mps 714 mmHg 73%
    04:00 +2°C° 0 mm 2 mps 714 mmHg 73%
    05:00 +2°C° 0 mm 2 mps 713 mmHg 72%
    06:00 +1°C° 0 mm 3 mps 713 mmHg 69%
    07:00 +1°C° 0 mm 4 mps 713 mmHg 66%
    08:00 +3°C° 0 mm 4 mps 713 mmHg 62%
    09:00 +3°C° 0.1 mm 5 mps 713 mmHg 61%
    10:00 +6°C° 0.1 mm 5 mps 713 mmHg 60%
    11:00 +7°C° 0.1 mm 5 mps 713 mmHg 59%
    12:00 +7°C° 0.5 mm 5 mps 712 mmHg 66%
    13:00 +6°C° 0.5 mm 4 mps 712 mmHg 73%
    14:00 +6°C° 0.5 mm 4 mps 712 mmHg 81%
    15:00 +6°C° 0.2 mm 4 mps 712 mmHg 82%
    16:00 +7°C° 0.2 mm 3 mps 712 mmHg 83%
    17:00 +7°C° 0.2 mm 3 mps 712 mmHg 85%
    18:00 +5°C° 0.1 mm 3 mps 712 mmHg 88%
    19:00 +6°C° 0.1 mm 2 mps 713 mmHg 91%
    20:00 +6°C° 0.1 mm 1 mps 713 mmHg 95%
    21:00 +6°C° 0 mm 1 mps 713 mmHg 95%
    22:00 +5°C° 0 mm 1 mps 713 mmHg 95%
    23:00 +5°C° 0 mm 1 mps 713 mmHg 95%

    27 September, Thursday

    Time Temperature Precipitation Wind Pressure Humidity
    00:00 +5°C° 0 mm 1 mps 713 mmHg 95%
    01:00 +5°C° 0 mm 1 mps 713 mmHg 95%
    02:00 +6°C° 0 mm 1 mps 713 mmHg 95%
    03:00 +5°C° 0 mm 1 mps 713 mmHg 95%
    04:00 +5°C° 0 mm 1 mps 713 mmHg 95%
    05:00 +5°C° 0 mm 1 mps 713 mmHg 95%
    06:00 +5°C° 0 mm 1 mps 713 mmHg 94%
    07:00 +6°C° 0 mm 1 mps 713 mmHg 92%
    08:00 +7°C° 0 mm 1 mps 713 mmHg 91%
    09:00 +8°C° 0 mm 2 mps 713 mmHg 83%
    10:00 +9°C° 0 mm 2 mps 713 mmHg 76%
    11:00 +11°C° 0 mm 3 mps 713 mmHg 68%
    12:00 +12°C° 0 mm 3 mps 712 mmHg 64%
    13:00 +13°C° 0 mm 3 mps 712 mmHg 59%
    14:00 +14°C° 0 mm 4 mps 711 mmHg 54%
    15:00 +13°C° 0 mm 3 mps 711 mmHg 57%
    16:00 +13°C° 0 mm 3 mps 710 mmHg 60%
    17:00 +12°C° 0 mm 3 mps 710 mmHg 63%
    18:00 +11°C° 0 mm 3 mps 709 mmHg 68%
    19:00 +9°C° 0 mm 3 mps 709 mmHg 72%
    20:00 +8°C° 0 mm 3 mps 709 mmHg 77%
    21:00 +8°C° 0 mm 3 mps 709 mmHg 77%
    22:00 +7°C° 0 mm 3 mps 708 mmHg 77%
    23:00 +6°C° 0 mm 4 mps 708 mmHg 77%
    Show more